<?xml version="1.0" encoding="UTF-8" standalone="no" ?>
<gpx xmlns="http://www.topografix.com/GPX/1/1" xmlns:xsi="http://www.w3.org/2001/XMLSchema-instance" xsi:schemaLocation="http://www.topografix.com/GPX/1/1 http://www.topografix.com/GPX/1/1/gpx.xsd" version="1.1" creator="VisuGPX - https://www.visugpx.com">
  <metadata>
    <name>Etape 6, Recoules d'Aubrac, La Chaldette</name>
    <desc><![CDATA[<html dir="ltr"><head></head><body contenteditable="true">comment ...</body></html>]]></desc>
  </metadata>
  <trk>
    <name><![CDATA[Tour des Monts d'Aubrac,  175 km]]></name>
    <desc><![CDATA[<html dir="ltr"><head></head><body contenteditable="true">comment ...</body></html>]]></desc>
    <extensions>
      <line xmlns="http://www.topografix.com/GPX/gpx_style/0/2">
        <color>0000FF</color>
        <width>4</width>
      </line>
    </extensions>
    <trkseg>
      <trkpt lat="44.69227" lon="3.02448">
        <ele>1102</ele>
        <time>2024-03-30T18:33:33Z</time>
      </trkpt>
      <trkpt lat="44.69233" lon="3.02469">
        <ele>1101</ele>
        <time>2024-03-30T18:33:33Z</time>
      </trkpt>
      <trkpt lat="44.69242" lon="3.02482">
        <ele>1100</ele>
        <time>2024-03-30T18:33:33Z</time>
      </trkpt>
      <trkpt lat="44.69234" lon="3.02499">
        <ele>1099</ele>
        <time>2024-03-30T18:33:33Z</time>
      </trkpt>
      <trkpt lat="44.69228" lon="3.02506">
        <ele>1099</ele>
        <time>2024-03-30T18:33:33Z</time>
      </trkpt>
      <trkpt lat="44.69218" lon="3.02513">
        <ele>1098</ele>
        <time>2024-03-30T18:33:33Z</time>
      </trkpt>
      <trkpt lat="44.69218" lon="3.02515">
        <ele>1098</ele>
        <time>2024-03-30T18:33:33Z</time>
      </trkpt>
      <trkpt lat="44.69202" lon="3.02514">
        <ele>1086</ele>
        <time>2024-03-30T18:33:33Z</time>
      </trkpt>
      <trkpt lat="44.69177" lon="3.02503">
        <ele>1082</ele>
        <time>2024-03-30T18:33:33Z</time>
      </trkpt>
      <trkpt lat="44.69165" lon="3.02502">
        <ele>1079</ele>
        <time>2024-03-30T18:33:33Z</time>
      </trkpt>
      <trkpt lat="44.69136" lon="3.02511">
        <ele>1076</ele>
        <time>2024-03-30T18:33:33Z</time>
      </trkpt>
      <trkpt lat="44.69123" lon="3.02533">
        <ele>1074</ele>
        <time>2024-03-30T18:33:33Z</time>
      </trkpt>
      <trkpt lat="44.69096" lon="3.02558">
        <ele>1072</ele>
        <time>2024-03-30T18:33:33Z</time>
      </trkpt>
      <trkpt lat="44.69085" lon="3.02576">
        <ele>1072</ele>
        <time>2024-03-30T18:33:33Z</time>
      </trkpt>
      <trkpt lat="44.69048" lon="3.02585">
        <ele>1071</ele>
        <time>2024-03-30T18:33:33Z</time>
      </trkpt>
      <trkpt lat="44.69016" lon="3.02605">
        <ele>1070</ele>
        <time>2024-03-30T18:33:33Z</time>
      </trkpt>
      <trkpt lat="44.69005" lon="3.02623">
        <ele>1070</ele>
        <time>2024-03-30T18:33:33Z</time>
      </trkpt>
      <trkpt lat="44.68981" lon="3.02638">
        <ele>1069</ele>
        <time>2024-03-30T18:33:33Z</time>
      </trkpt>
      <trkpt lat="44.68965" lon="3.0266">
        <ele>1070</ele>
        <time>2024-03-30T18:33:33Z</time>
      </trkpt>
      <trkpt lat="44.68947" lon="3.02725">
        <ele>1071</ele>
        <time>2024-03-30T18:33:33Z</time>
      </trkpt>
      <trkpt lat="44.68946" lon="3.02725">
        <ele>1072</ele>
        <time>2024-03-30T18:33:33Z</time>
      </trkpt>
      <trkpt lat="44.68947" lon="3.0274">
        <ele>1073</ele>
        <time>2024-03-30T18:33:33Z</time>
      </trkpt>
      <trkpt lat="44.68945" lon="3.02752">
        <ele>1075</ele>
        <time>2024-03-30T18:33:33Z</time>
      </trkpt>
      <trkpt lat="44.68937" lon="3.02774">
        <ele>1077</ele>
        <time>2024-03-30T18:33:33Z</time>
      </trkpt>
      <trkpt lat="44.68937" lon="3.0279">
        <ele>1080</ele>
        <time>2024-03-30T18:33:33Z</time>
      </trkpt>
      <trkpt lat="44.68961" lon="3.02844">
        <ele>1084</ele>
        <time>2024-03-30T18:33:33Z</time>
      </trkpt>
      <trkpt lat="44.68958" lon="3.02881">
        <ele>1087</ele>
        <time>2024-03-30T18:33:33Z</time>
      </trkpt>
      <trkpt lat="44.68966" lon="3.02941">
        <ele>1089</ele>
        <time>2024-03-30T18:33:33Z</time>
      </trkpt>
      <trkpt lat="44.68964" lon="3.02977">
        <ele>1091</ele>
        <time>2024-03-30T18:33:33Z</time>
      </trkpt>
      <trkpt lat="44.68955" lon="3.02996">
        <ele>1093</ele>
        <time>2024-03-30T18:33:33Z</time>
      </trkpt>
      <trkpt lat="44.68927" lon="3.03027">
        <ele>1094</ele>
        <time>2024-03-30T18:33:33Z</time>
      </trkpt>
      <trkpt lat="44.68908" lon="3.0307">
        <ele>1095</ele>
        <time>2024-03-30T18:33:33Z</time>
      </trkpt>
      <trkpt lat="44.68902" lon="3.03093">
        <ele>1096</ele>
        <time>2024-03-30T18:33:33Z</time>
      </trkpt>
      <trkpt lat="44.68903" lon="3.03121">
        <ele>1097</ele>
        <time>2024-03-30T18:33:33Z</time>
      </trkpt>
      <trkpt lat="44.689" lon="3.03134">
        <ele>1099</ele>
        <time>2024-03-30T18:33:33Z</time>
      </trkpt>
      <trkpt lat="44.68892" lon="3.03146">
        <ele>1101</ele>
        <time>2024-03-30T18:33:33Z</time>
      </trkpt>
      <trkpt lat="44.68852" lon="3.03179">
        <ele>1103</ele>
        <time>2024-03-30T18:33:33Z</time>
      </trkpt>
      <trkpt lat="44.68842" lon="3.0319">
        <ele>1104</ele>
        <time>2024-03-30T18:33:33Z</time>
      </trkpt>
      <trkpt lat="44.68823" lon="3.03226">
        <ele>1105</ele>
        <time>2024-03-30T18:33:33Z</time>
      </trkpt>
      <trkpt lat="44.68819" lon="3.03242">
        <ele>1106</ele>
        <time>2024-03-30T18:33:33Z</time>
      </trkpt>
      <trkpt lat="44.68817" lon="3.03283">
        <ele>1107</ele>
        <time>2024-03-30T18:33:33Z</time>
      </trkpt>
      <trkpt lat="44.68815" lon="3.03283">
        <ele>1107</ele>
        <time>2024-03-30T18:33:33Z</time>
      </trkpt>
      <trkpt lat="44.68811" lon="3.03293">
        <ele>1107</ele>
        <time>2024-03-30T18:33:33Z</time>
      </trkpt>
      <trkpt lat="44.68821" lon="3.03303">
        <ele>1107</ele>
        <time>2024-03-30T18:33:33Z</time>
      </trkpt>
      <trkpt lat="44.68841" lon="3.03315">
        <ele>1106</ele>
        <time>2024-03-30T18:33:33Z</time>
      </trkpt>
      <trkpt lat="44.68848" lon="3.03317">
        <ele>1106</ele>
        <time>2024-03-30T18:33:33Z</time>
      </trkpt>
      <trkpt lat="44.68867" lon="3.03313">
        <ele>1105</ele>
        <time>2024-03-30T18:33:33Z</time>
      </trkpt>
      <trkpt lat="44.69015" lon="3.03396">
        <ele>1102</ele>
        <time>2024-03-30T18:33:33Z</time>
      </trkpt>
      <trkpt lat="44.69018" lon="3.03415">
        <ele>1100</ele>
        <time>2024-03-30T18:33:33Z</time>
      </trkpt>
      <trkpt lat="44.69067" lon="3.03453">
        <ele>1096</ele>
        <time>2024-03-30T18:33:33Z</time>
      </trkpt>
      <trkpt lat="44.69077" lon="3.03449">
        <ele>1095</ele>
        <time>2024-03-30T18:33:33Z</time>
      </trkpt>
      <trkpt lat="44.691" lon="3.03413">
        <ele>1094</ele>
        <time>2024-03-30T18:33:33Z</time>
      </trkpt>
      <trkpt lat="44.69099" lon="3.03412">
        <ele>1093</ele>
        <time>2024-03-30T18:33:33Z</time>
      </trkpt>
      <trkpt lat="44.69113" lon="3.03412">
        <ele>1091</ele>
        <time>2024-03-30T18:33:33Z</time>
      </trkpt>
      <trkpt lat="44.69136" lon="3.0345">
        <ele>1089</ele>
        <time>2024-03-30T18:33:33Z</time>
      </trkpt>
      <trkpt lat="44.69146" lon="3.03443">
        <ele>1088</ele>
        <time>2024-03-30T18:33:33Z</time>
      </trkpt>
      <trkpt lat="44.69174" lon="3.03445">
        <ele>1087</ele>
        <time>2024-03-30T18:33:33Z</time>
      </trkpt>
      <trkpt lat="44.69187" lon="3.03464">
        <ele>1081</ele>
        <time>2024-03-30T18:33:33Z</time>
      </trkpt>
      <trkpt lat="44.69189" lon="3.03475">
        <ele>1080</ele>
        <time>2024-03-30T18:33:33Z</time>
      </trkpt>
      <trkpt lat="44.69186" lon="3.03489">
        <ele>1079</ele>
        <time>2024-03-30T18:33:33Z</time>
      </trkpt>
      <trkpt lat="44.69193" lon="3.03502">
        <ele>1078</ele>
        <time>2024-03-30T18:33:33Z</time>
      </trkpt>
      <trkpt lat="44.69201" lon="3.03508">
        <ele>1076</ele>
        <time>2024-03-30T18:33:33Z</time>
      </trkpt>
      <trkpt lat="44.6922" lon="3.03512">
        <ele>1075</ele>
        <time>2024-03-30T18:33:33Z</time>
      </trkpt>
      <trkpt lat="44.6923" lon="3.03504">
        <ele>1074</ele>
        <time>2024-03-30T18:33:33Z</time>
      </trkpt>
      <trkpt lat="44.6926" lon="3.03506">
        <ele>1072</ele>
        <time>2024-03-30T18:33:33Z</time>
      </trkpt>
      <trkpt lat="44.69269" lon="3.03512">
        <ele>1070</ele>
        <time>2024-03-30T18:33:33Z</time>
      </trkpt>
      <trkpt lat="44.69323" lon="3.03523">
        <ele>1068</ele>
        <time>2024-03-30T18:33:33Z</time>
      </trkpt>
      <trkpt lat="44.69335" lon="3.0353">
        <ele>1068</ele>
        <time>2024-03-30T18:33:33Z</time>
      </trkpt>
      <trkpt lat="44.69362" lon="3.03503">
        <ele>1068</ele>
        <time>2024-03-30T18:33:33Z</time>
      </trkpt>
      <trkpt lat="44.6937" lon="3.03491">
        <ele>1069</ele>
        <time>2024-03-30T18:33:33Z</time>
      </trkpt>
      <trkpt lat="44.69388" lon="3.03503">
        <ele>1070</ele>
        <time>2024-03-30T18:33:33Z</time>
      </trkpt>
      <trkpt lat="44.69389" lon="3.03502">
        <ele>1072</ele>
        <time>2024-03-30T18:33:33Z</time>
      </trkpt>
      <trkpt lat="44.69468" lon="3.03542">
        <ele>1077</ele>
        <time>2024-03-30T18:33:33Z</time>
      </trkpt>
      <trkpt lat="44.69449" lon="3.03566">
        <ele>1080</ele>
        <time>2024-03-30T18:33:33Z</time>
      </trkpt>
      <trkpt lat="44.69399" lon="3.0367">
        <ele>1083</ele>
        <time>2024-03-30T18:33:33Z</time>
      </trkpt>
      <trkpt lat="44.69376" lon="3.03711">
        <ele>1085</ele>
        <time>2024-03-30T18:33:33Z</time>
      </trkpt>
      <trkpt lat="44.69377" lon="3.03712">
        <ele>1087</ele>
        <time>2024-03-30T18:33:33Z</time>
      </trkpt>
      <trkpt lat="44.69272" lon="3.03833">
        <ele>1090</ele>
        <time>2024-03-30T18:33:33Z</time>
      </trkpt>
      <trkpt lat="44.69265" lon="3.03847">
        <ele>1091</ele>
        <time>2024-03-30T18:33:33Z</time>
      </trkpt>
      <trkpt lat="44.69244" lon="3.0391">
        <ele>1093</ele>
        <time>2024-03-30T18:33:33Z</time>
      </trkpt>
      <trkpt lat="44.69243" lon="3.03924">
        <ele>1094</ele>
        <time>2024-03-30T18:33:33Z</time>
      </trkpt>
      <trkpt lat="44.69245" lon="3.03937">
        <ele>1095</ele>
        <time>2024-03-30T18:33:33Z</time>
      </trkpt>
      <trkpt lat="44.69252" lon="3.03951">
        <ele>1096</ele>
        <time>2024-03-30T18:33:33Z</time>
      </trkpt>
      <trkpt lat="44.69283" lon="3.03977">
        <ele>1098</ele>
        <time>2024-03-30T18:33:33Z</time>
      </trkpt>
      <trkpt lat="44.69291" lon="3.03989">
        <ele>1099</ele>
        <time>2024-03-30T18:33:33Z</time>
      </trkpt>
      <trkpt lat="44.69296" lon="3.0401">
        <ele>1101</ele>
        <time>2024-03-30T18:33:33Z</time>
      </trkpt>
      <trkpt lat="44.69306" lon="3.04076">
        <ele>1103</ele>
        <time>2024-03-30T18:33:33Z</time>
      </trkpt>
      <trkpt lat="44.69305" lon="3.04096">
        <ele>1104</ele>
        <time>2024-03-30T18:33:33Z</time>
      </trkpt>
      <trkpt lat="44.69295" lon="3.04178">
        <ele>1107</ele>
        <time>2024-03-30T18:33:33Z</time>
      </trkpt>
      <trkpt lat="44.69287" lon="3.04192">
        <ele>1109</ele>
        <time>2024-03-30T18:33:33Z</time>
      </trkpt>
      <trkpt lat="44.69237" lon="3.04229">
        <ele>1113</ele>
        <time>2024-03-30T18:33:33Z</time>
      </trkpt>
      <trkpt lat="44.69121" lon="3.04262">
        <ele>1118</ele>
        <time>2024-03-30T18:33:33Z</time>
      </trkpt>
      <trkpt lat="44.69114" lon="3.04268">
        <ele>1119</ele>
        <time>2024-03-30T18:33:33Z</time>
      </trkpt>
      <trkpt lat="44.69089" lon="3.04308">
        <ele>1122</ele>
        <time>2024-03-30T18:33:33Z</time>
      </trkpt>
      <trkpt lat="44.69089" lon="3.04318">
        <ele>1125</ele>
        <time>2024-03-30T18:33:33Z</time>
      </trkpt>
      <trkpt lat="44.69141" lon="3.04768">
        <ele>1138</ele>
        <time>2024-03-30T18:33:33Z</time>
      </trkpt>
      <trkpt lat="44.69142" lon="3.04768">
        <ele>1140</ele>
        <time>2024-03-30T18:33:33Z</time>
      </trkpt>
      <trkpt lat="44.69196" lon="3.04893">
        <ele>1145</ele>
        <time>2024-03-30T18:33:33Z</time>
      </trkpt>
      <trkpt lat="44.69215" lon="3.0499">
        <ele>1149</ele>
        <time>2024-03-30T18:33:33Z</time>
      </trkpt>
      <trkpt lat="44.69228" lon="3.05031">
        <ele>1151</ele>
        <time>2024-03-30T18:33:33Z</time>
      </trkpt>
      <trkpt lat="44.69232" lon="3.05052">
        <ele>1152</ele>
        <time>2024-03-30T18:33:33Z</time>
      </trkpt>
      <trkpt lat="44.69223" lon="3.05146">
        <ele>1154</ele>
        <time>2024-03-30T18:33:33Z</time>
      </trkpt>
      <trkpt lat="44.69216" lon="3.05155">
        <ele>1156</ele>
        <time>2024-03-30T18:33:33Z</time>
      </trkpt>
      <trkpt lat="44.69212" lon="3.05181">
        <ele>1158</ele>
        <time>2024-03-30T18:33:33Z</time>
      </trkpt>
      <trkpt lat="44.69222" lon="3.05243">
        <ele>1162</ele>
        <time>2024-03-30T18:33:33Z</time>
      </trkpt>
      <trkpt lat="44.69218" lon="3.05275">
        <ele>1163</ele>
        <time>2024-03-30T18:33:33Z</time>
      </trkpt>
      <trkpt lat="44.69228" lon="3.05309">
        <ele>1164</ele>
        <time>2024-03-30T18:33:33Z</time>
      </trkpt>
      <trkpt lat="44.69226" lon="3.05323">
        <ele>1164</ele>
      </trkpt>
      <trkpt lat="44.69226" lon="3.05323">
        <ele>1163</ele>
        <time>2024-03-30T18:33:33Z</time>
      </trkpt>
      <trkpt lat="44.69228" lon="3.05338">
        <ele>1163</ele>
        <time>2024-03-30T18:33:33Z</time>
      </trkpt>
      <trkpt lat="44.6925" lon="3.05356">
        <ele>1162</ele>
        <time>2024-03-30T18:33:33Z</time>
      </trkpt>
      <trkpt lat="44.69252" lon="3.05366">
        <ele>1162</ele>
        <time>2024-03-30T18:33:33Z</time>
      </trkpt>
      <trkpt lat="44.69254" lon="3.05412">
        <ele>1160</ele>
        <time>2024-03-30T18:33:33Z</time>
      </trkpt>
      <trkpt lat="44.69252" lon="3.05426">
        <ele>1160</ele>
        <time>2024-03-30T18:33:33Z</time>
      </trkpt>
      <trkpt lat="44.69254" lon="3.0544">
        <ele>1160</ele>
        <time>2024-03-30T18:33:33Z</time>
      </trkpt>
      <trkpt lat="44.6927" lon="3.0545">
        <ele>1160</ele>
        <time>2024-03-30T18:33:33Z</time>
      </trkpt>
      <trkpt lat="44.6927" lon="3.0545">
        <ele>1160</ele>
        <time>2024-03-30T18:33:33Z</time>
      </trkpt>
      <trkpt lat="44.69312" lon="3.05463">
        <ele>1159</ele>
        <time>2024-03-30T18:33:33Z</time>
      </trkpt>
      <trkpt lat="44.69416" lon="3.05429">
        <ele>1158</ele>
        <time>2024-03-30T18:33:33Z</time>
      </trkpt>
      <trkpt lat="44.69435" lon="3.05415">
        <ele>1156</ele>
        <time>2024-03-30T18:33:33Z</time>
      </trkpt>
      <trkpt lat="44.69505" lon="3.05436">
        <ele>1153</ele>
      </trkpt>
      <trkpt lat="44.69557" lon="3.05452">
        <ele>1151</ele>
        <time>2024-03-30T18:33:33Z</time>
      </trkpt>
      <trkpt lat="44.69643" lon="3.05462">
        <ele>1148</ele>
        <time>2024-03-30T18:33:33Z</time>
      </trkpt>
      <trkpt lat="44.69794" lon="3.05448">
        <ele>1144</ele>
        <time>2024-03-30T18:33:33Z</time>
      </trkpt>
      <trkpt lat="44.69895" lon="3.05477">
        <ele>1142</ele>
      </trkpt>
      <trkpt lat="44.69928" lon="3.05486">
        <ele>1141</ele>
        <time>2024-03-30T18:33:33Z</time>
      </trkpt>
      <trkpt lat="44.69992" lon="3.05491">
        <ele>1140</ele>
        <time>2024-03-30T18:33:33Z</time>
      </trkpt>
      <trkpt lat="44.7001" lon="3.05502">
        <ele>1140</ele>
        <time>2024-03-30T18:33:33Z</time>
      </trkpt>
      <trkpt lat="44.70037" lon="3.05507">
        <ele>1139</ele>
        <time>2024-03-30T18:33:33Z</time>
      </trkpt>
      <trkpt lat="44.70089" lon="3.05499">
        <ele>1138</ele>
        <time>2024-03-30T18:33:33Z</time>
      </trkpt>
      <trkpt lat="44.70118" lon="3.05469">
        <ele>1138</ele>
        <time>2024-03-30T18:33:33Z</time>
      </trkpt>
      <trkpt lat="44.70129" lon="3.0546">
        <ele>1138</ele>
        <time>2024-03-30T18:33:33Z</time>
      </trkpt>
      <trkpt lat="44.70142" lon="3.0546">
        <ele>1139</ele>
        <time>2024-03-30T18:33:33Z</time>
      </trkpt>
      <trkpt lat="44.70142" lon="3.05459">
        <ele>1140</ele>
        <time>2024-03-30T18:33:33Z</time>
      </trkpt>
      <trkpt lat="44.70159" lon="3.05464">
        <ele>1142</ele>
        <time>2024-03-30T18:33:33Z</time>
      </trkpt>
      <trkpt lat="44.70233" lon="3.05518">
        <ele>1145</ele>
        <time>2024-03-30T18:33:33Z</time>
      </trkpt>
      <trkpt lat="44.70251" lon="3.05521">
        <ele>1147</ele>
      </trkpt>
      <trkpt lat="44.70301" lon="3.05528">
        <ele>1150</ele>
        <time>2024-03-30T18:33:33Z</time>
      </trkpt>
      <trkpt lat="44.70424" lon="3.05493">
        <ele>1154</ele>
        <time>2024-03-30T18:33:33Z</time>
      </trkpt>
      <trkpt lat="44.7045" lon="3.05477">
        <ele>1155</ele>
        <time>2024-03-30T18:33:33Z</time>
      </trkpt>
      <trkpt lat="44.70555" lon="3.05561">
        <ele>1157</ele>
        <time>2024-03-30T18:33:33Z</time>
      </trkpt>
      <trkpt lat="44.70576" lon="3.05588">
        <ele>1158</ele>
        <time>2024-03-30T18:33:33Z</time>
      </trkpt>
      <trkpt lat="44.70591" lon="3.056">
        <ele>1159</ele>
      </trkpt>
      <trkpt lat="44.70801" lon="3.05769">
        <ele>1161</ele>
        <time>2024-03-30T18:33:33Z</time>
      </trkpt>
      <trkpt lat="44.70801" lon="3.05768">
        <ele>1161</ele>
        <time>2024-03-30T18:33:33Z</time>
      </trkpt>
      <trkpt lat="44.70789" lon="3.05819">
        <ele>1162</ele>
        <time>2024-03-30T18:33:33Z</time>
      </trkpt>
      <trkpt lat="44.70787" lon="3.05845">
        <ele>1162</ele>
        <time>2024-03-30T18:33:33Z</time>
      </trkpt>
      <trkpt lat="44.70822" lon="3.05877">
        <ele>1163</ele>
      </trkpt>
      <trkpt lat="44.70822" lon="3.05877">
        <ele>1163</ele>
        <time>2024-03-30T18:33:33Z</time>
      </trkpt>
      <trkpt lat="44.70836" lon="3.05883">
        <ele>1164</ele>
        <time>2024-03-30T18:33:33Z</time>
      </trkpt>
      <trkpt lat="44.70847" lon="3.05891">
        <ele>1164</ele>
        <time>2024-03-30T18:33:33Z</time>
      </trkpt>
      <trkpt lat="44.70864" lon="3.05918">
        <ele>1165</ele>
        <time>2024-03-30T18:33:33Z</time>
      </trkpt>
      <trkpt lat="44.7093" lon="3.05975">
        <ele>1167</ele>
        <time>2024-03-30T18:33:33Z</time>
      </trkpt>
      <trkpt lat="44.71021" lon="3.06006">
        <ele>1168</ele>
        <time>2024-03-30T18:33:33Z</time>
      </trkpt>
      <trkpt lat="44.71057" lon="3.06004">
        <ele>1168</ele>
        <time>2024-03-30T18:33:33Z</time>
      </trkpt>
      <trkpt lat="44.71131" lon="3.06018">
        <ele>1168</ele>
        <time>2024-03-30T18:33:33Z</time>
      </trkpt>
      <trkpt lat="44.71165" lon="3.06044">
        <ele>1168</ele>
      </trkpt>
      <trkpt lat="44.71235" lon="3.06099">
        <ele>1169</ele>
        <time>2024-03-30T18:33:33Z</time>
      </trkpt>
      <trkpt lat="44.71247" lon="3.06116">
        <ele>1170</ele>
        <time>2024-03-30T18:33:33Z</time>
      </trkpt>
      <trkpt lat="44.7133" lon="3.06193">
        <ele>1170</ele>
        <time>2024-03-30T18:33:33Z</time>
      </trkpt>
      <trkpt lat="44.71343" lon="3.06198">
        <ele>1170</ele>
        <time>2024-03-30T18:33:33Z</time>
      </trkpt>
      <trkpt lat="44.7135" lon="3.06196">
        <ele>1170</ele>
        <time>2024-03-30T18:33:33Z</time>
      </trkpt>
      <trkpt lat="44.71377" lon="3.06176">
        <ele>1170</ele>
        <time>2024-03-30T18:33:33Z</time>
      </trkpt>
      <trkpt lat="44.71444" lon="3.06077">
        <ele>1170</ele>
        <time>2024-03-30T18:33:33Z</time>
      </trkpt>
      <trkpt lat="44.71458" lon="3.06065">
        <ele>1169</ele>
        <time>2024-03-30T18:33:33Z</time>
      </trkpt>
      <trkpt lat="44.71581" lon="3.06136">
        <ele>1168</ele>
        <time>2024-03-30T18:33:33Z</time>
      </trkpt>
      <trkpt lat="44.71582" lon="3.06137">
        <ele>1168</ele>
        <time>2024-03-30T18:33:33Z</time>
      </trkpt>
      <trkpt lat="44.71606" lon="3.06144">
        <ele>1168</ele>
      </trkpt>
      <trkpt lat="44.71615" lon="3.06147">
        <ele>1167</ele>
        <time>2024-03-30T18:33:33Z</time>
      </trkpt>
      <trkpt lat="44.71647" lon="3.06174">
        <ele>1167</ele>
        <time>2024-03-30T18:33:33Z</time>
      </trkpt>
      <trkpt lat="44.71744" lon="3.06239">
        <ele>1166</ele>
      </trkpt>
      <trkpt lat="44.71753" lon="3.06245">
        <ele>1165</ele>
        <time>2024-03-30T18:33:33Z</time>
      </trkpt>
      <trkpt lat="44.71903" lon="3.06294">
        <ele>1162</ele>
      </trkpt>
      <trkpt lat="44.72062" lon="3.06346">
        <ele>1158</ele>
      </trkpt>
      <trkpt lat="44.72082" lon="3.06352">
        <ele>1157</ele>
        <time>2024-03-30T18:33:33Z</time>
      </trkpt>
      <trkpt lat="44.72155" lon="3.06392">
        <ele>1155</ele>
        <time>2024-03-30T18:33:33Z</time>
      </trkpt>
      <trkpt lat="44.72163" lon="3.064">
        <ele>1155</ele>
        <time>2024-03-30T18:33:33Z</time>
      </trkpt>
      <trkpt lat="44.72176" lon="3.064">
        <ele>1155</ele>
        <time>2024-03-30T18:33:33Z</time>
      </trkpt>
      <trkpt lat="44.72196" lon="3.06365">
        <ele>1155</ele>
      </trkpt>
      <trkpt lat="44.72218" lon="3.06328">
        <ele>1155</ele>
        <time>2024-03-30T18:33:33Z</time>
      </trkpt>
      <trkpt lat="44.72245" lon="3.06296">
        <ele>1154</ele>
        <time>2024-03-30T18:33:33Z</time>
      </trkpt>
      <trkpt lat="44.72256" lon="3.06291">
        <ele>1153</ele>
        <time>2024-03-30T18:33:33Z</time>
      </trkpt>
      <trkpt lat="44.72314" lon="3.06292">
        <ele>1151</ele>
        <time>2024-03-30T18:33:33Z</time>
      </trkpt>
      <trkpt lat="44.72326" lon="3.06288">
        <ele>1150</ele>
      </trkpt>
      <trkpt lat="44.72485" lon="3.06233">
        <ele>1147</ele>
      </trkpt>
      <trkpt lat="44.72486" lon="3.06233">
        <ele>1147</ele>
        <time>2024-03-30T18:33:33Z</time>
      </trkpt>
      <trkpt lat="44.72514" lon="3.06276">
        <ele>1148</ele>
        <time>2024-03-30T18:33:33Z</time>
      </trkpt>
      <trkpt lat="44.72522" lon="3.0628">
        <ele>1149</ele>
        <time>2024-03-30T18:33:33Z</time>
      </trkpt>
      <trkpt lat="44.72536" lon="3.06278">
        <ele>1150</ele>
        <time>2024-03-30T18:33:33Z</time>
      </trkpt>
      <trkpt lat="44.72595" lon="3.06221">
        <ele>1152</ele>
        <time>2024-03-30T18:33:33Z</time>
      </trkpt>
      <trkpt lat="44.72596" lon="3.06232">
        <ele>1153</ele>
      </trkpt>
      <trkpt lat="44.72596" lon="3.06239">
        <ele>1153</ele>
        <time>2024-03-30T18:33:33Z</time>
      </trkpt>
      <trkpt lat="44.72618" lon="3.06253">
        <ele>1153</ele>
        <time>2024-03-30T18:33:33Z</time>
      </trkpt>
      <trkpt lat="44.72619" lon="3.06253">
        <ele>1153</ele>
        <time>2024-03-30T18:33:33Z</time>
      </trkpt>
      <trkpt lat="44.72635" lon="3.06279">
        <ele>1152</ele>
        <time>2024-03-30T18:33:33Z</time>
      </trkpt>
      <trkpt lat="44.72647" lon="3.06285">
        <ele>1152</ele>
        <time>2024-03-30T18:33:33Z</time>
      </trkpt>
      <trkpt lat="44.72659" lon="3.06285">
        <ele>1151</ele>
        <time>2024-03-30T18:33:33Z</time>
      </trkpt>
      <trkpt lat="44.72724" lon="3.06309">
        <ele>1151</ele>
      </trkpt>
      <trkpt lat="44.72724" lon="3.06309">
        <ele>1151</ele>
        <time>2024-03-30T18:33:33Z</time>
      </trkpt>
      <trkpt lat="44.72784" lon="3.06354">
        <ele>1153</ele>
        <time>2024-03-30T18:33:33Z</time>
      </trkpt>
      <trkpt lat="44.72843" lon="3.06437">
        <ele>1154</ele>
      </trkpt>
      <trkpt lat="44.72857" lon="3.06456">
        <ele>1155</ele>
        <time>2024-03-30T18:33:33Z</time>
      </trkpt>
      <trkpt lat="44.72874" lon="3.06502">
        <ele>1156</ele>
        <time>2024-03-30T18:33:33Z</time>
      </trkpt>
      <trkpt lat="44.72883" lon="3.06517">
        <ele>1156</ele>
        <time>2024-03-30T18:33:33Z</time>
      </trkpt>
      <trkpt lat="44.72896" lon="3.06525">
        <ele>1157</ele>
        <time>2024-03-30T18:33:33Z</time>
      </trkpt>
      <trkpt lat="44.72929" lon="3.06579">
        <ele>1158</ele>
      </trkpt>
      <trkpt lat="44.72978" lon="3.06657">
        <ele>1157</ele>
        <time>2024-03-30T18:33:33Z</time>
      </trkpt>
      <trkpt lat="44.73044" lon="3.06695">
        <ele>1156</ele>
      </trkpt>
      <trkpt lat="44.73153" lon="3.06759">
        <ele>1154</ele>
        <time>2024-03-30T18:33:33Z</time>
      </trkpt>
      <trkpt lat="44.73175" lon="3.06787">
        <ele>1154</ele>
      </trkpt>
      <trkpt lat="44.73175" lon="3.06787">
        <ele>1153</ele>
        <time>2024-03-30T18:33:33Z</time>
      </trkpt>
      <trkpt lat="44.73215" lon="3.06805">
        <ele>1152</ele>
        <time>2024-03-30T18:33:33Z</time>
      </trkpt>
      <trkpt lat="44.73251" lon="3.06835">
        <ele>1152</ele>
        <time>2024-03-30T18:33:33Z</time>
      </trkpt>
      <trkpt lat="44.73324" lon="3.06876">
        <ele>1154</ele>
      </trkpt>
      <trkpt lat="44.73377" lon="3.06905">
        <ele>1157</ele>
        <time>2024-03-30T18:33:33Z</time>
      </trkpt>
      <trkpt lat="44.73484" lon="3.06911">
        <ele>1158</ele>
      </trkpt>
      <trkpt lat="44.73498" lon="3.06912">
        <ele>1158</ele>
        <time>2024-03-30T18:33:33Z</time>
      </trkpt>
      <trkpt lat="44.73507" lon="3.06922">
        <ele>1158</ele>
        <time>2024-03-30T18:33:33Z</time>
      </trkpt>
      <trkpt lat="44.73509" lon="3.06934">
        <ele>1158</ele>
        <time>2024-03-30T18:33:33Z</time>
      </trkpt>
      <trkpt lat="44.73506" lon="3.06947">
        <ele>1158</ele>
        <time>2024-03-30T18:33:33Z</time>
      </trkpt>
      <trkpt lat="44.73501" lon="3.06958">
        <ele>1158</ele>
        <time>2024-03-30T18:33:33Z</time>
      </trkpt>
      <trkpt lat="44.73499" lon="3.07018">
        <ele>1158</ele>
        <time>2024-03-30T18:33:33Z</time>
      </trkpt>
      <trkpt lat="44.73501" lon="3.07028">
        <ele>1159</ele>
        <time>2024-03-30T18:33:33Z</time>
      </trkpt>
      <trkpt lat="44.73505" lon="3.07038">
        <ele>1160</ele>
        <time>2024-03-30T18:33:33Z</time>
      </trkpt>
      <trkpt lat="44.73515" lon="3.0704">
        <ele>1161</ele>
        <time>2024-03-30T18:33:33Z</time>
      </trkpt>
      <trkpt lat="44.73515" lon="3.07038">
        <ele>1163</ele>
        <time>2024-03-30T18:33:33Z</time>
      </trkpt>
      <trkpt lat="44.73525" lon="3.07037">
        <ele>1166</ele>
      </trkpt>
      <trkpt lat="44.73693" lon="3.07023">
        <ele>1175</ele>
      </trkpt>
      <trkpt lat="44.73705" lon="3.07022">
        <ele>1176</ele>
        <time>2024-03-30T18:33:33Z</time>
      </trkpt>
      <trkpt lat="44.73712" lon="3.07023">
        <ele>1177</ele>
        <time>2024-03-30T18:33:33Z</time>
      </trkpt>
      <trkpt lat="44.7386" lon="3.07012">
        <ele>1178</ele>
      </trkpt>
      <trkpt lat="44.74028" lon="3.07">
        <ele>1180</ele>
      </trkpt>
      <trkpt lat="44.74196" lon="3.06988">
        <ele>1178</ele>
        <time>2024-03-30T18:33:33Z</time>
      </trkpt>
      <trkpt lat="44.74356" lon="3.06883">
        <ele>1170</ele>
        <time>2024-03-30T18:33:33Z</time>
      </trkpt>
      <trkpt lat="44.74426" lon="3.06854">
        <ele>1170</ele>
        <time>2024-03-30T18:33:33Z</time>
      </trkpt>
      <trkpt lat="44.74443" lon="3.06839">
        <ele>1169</ele>
        <time>2024-03-30T18:33:33Z</time>
      </trkpt>
      <trkpt lat="44.74467" lon="3.06806">
        <ele>1168</ele>
        <time>2024-03-30T18:33:33Z</time>
      </trkpt>
      <trkpt lat="44.74556" lon="3.06714">
        <ele>1164</ele>
        <time>2024-03-30T18:33:33Z</time>
      </trkpt>
      <trkpt lat="44.74661" lon="3.06684">
        <ele>1160</ele>
        <time>2024-03-30T18:33:33Z</time>
      </trkpt>
      <trkpt lat="44.74674" lon="3.06674">
        <ele>1158</ele>
        <time>2024-03-30T18:33:33Z</time>
      </trkpt>
      <trkpt lat="44.7472" lon="3.06601">
        <ele>1153</ele>
        <time>2024-03-30T18:33:33Z</time>
      </trkpt>
      <trkpt lat="44.74748" lon="3.06572">
        <ele>1152</ele>
        <time>2024-03-30T18:33:33Z</time>
      </trkpt>
      <trkpt lat="44.74762" lon="3.06567">
        <ele>1151</ele>
        <time>2024-03-30T18:33:33Z</time>
      </trkpt>
      <trkpt lat="44.7478" lon="3.06575">
        <ele>1151</ele>
        <time>2024-03-30T18:33:33Z</time>
      </trkpt>
      <trkpt lat="44.7478" lon="3.06574">
        <ele>1151</ele>
        <time>2024-03-30T18:33:33Z</time>
      </trkpt>
      <trkpt lat="44.7481" lon="3.06609">
        <ele>1151</ele>
        <time>2024-03-30T18:33:33Z</time>
      </trkpt>
      <trkpt lat="44.7495" lon="3.06682">
        <ele>1153</ele>
        <time>2024-03-30T18:33:33Z</time>
      </trkpt>
      <trkpt lat="44.7507" lon="3.06818">
        <ele>1150</ele>
        <time>2024-03-30T18:33:33Z</time>
      </trkpt>
      <trkpt lat="44.75074" lon="3.06828">
        <ele>1149</ele>
        <time>2024-03-30T18:33:33Z</time>
      </trkpt>
      <trkpt lat="44.75083" lon="3.06889">
        <ele>1148</ele>
        <time>2024-03-30T18:33:33Z</time>
      </trkpt>
      <trkpt lat="44.7513" lon="3.06971">
        <ele>1143</ele>
        <time>2024-03-30T18:33:33Z</time>
      </trkpt>
      <trkpt lat="44.75166" lon="3.07013">
        <ele>1139</ele>
        <time>2024-03-30T18:33:33Z</time>
      </trkpt>
      <trkpt lat="44.75185" lon="3.07026">
        <ele>1137</ele>
        <time>2024-03-30T18:33:33Z</time>
      </trkpt>
      <trkpt lat="44.75225" lon="3.07036">
        <ele>1134</ele>
        <time>2024-03-30T18:33:33Z</time>
      </trkpt>
      <trkpt lat="44.75225" lon="3.07034">
        <ele>1132</ele>
        <time>2024-03-30T18:33:33Z</time>
      </trkpt>
      <trkpt lat="44.75282" lon="3.07039">
        <ele>1129</ele>
        <time>2024-03-30T18:33:33Z</time>
      </trkpt>
      <trkpt lat="44.75361" lon="3.0707">
        <ele>1126</ele>
        <time>2024-03-30T18:33:33Z</time>
      </trkpt>
      <trkpt lat="44.7541" lon="3.07069">
        <ele>1126</ele>
        <time>2024-03-30T18:33:33Z</time>
      </trkpt>
      <trkpt lat="44.75449" lon="3.07078">
        <ele>1126</ele>
        <time>2024-03-30T18:33:33Z</time>
      </trkpt>
      <trkpt lat="44.7546" lon="3.07078">
        <ele>1126</ele>
        <time>2024-03-30T18:33:33Z</time>
      </trkpt>
      <trkpt lat="44.75483" lon="3.07045">
        <ele>1126</ele>
        <time>2024-03-30T18:33:33Z</time>
      </trkpt>
      <trkpt lat="44.75499" lon="3.07027">
        <ele>1125</ele>
        <time>2024-03-30T18:33:33Z</time>
      </trkpt>
      <trkpt lat="44.75506" lon="3.07016">
        <ele>1124</ele>
        <time>2024-03-30T18:33:33Z</time>
      </trkpt>
      <trkpt lat="44.75521" lon="3.06999">
        <ele>1124</ele>
        <time>2024-03-30T18:33:33Z</time>
      </trkpt>
      <trkpt lat="44.75521" lon="3.06999">
        <ele>1121</ele>
        <time>2024-03-30T18:33:33Z</time>
      </trkpt>
      <trkpt lat="44.75532" lon="3.06993">
        <ele>1120</ele>
        <time>2024-03-30T18:33:33Z</time>
      </trkpt>
      <trkpt lat="44.75539" lon="3.06983">
        <ele>1119</ele>
        <time>2024-03-30T18:33:33Z</time>
      </trkpt>
      <trkpt lat="44.75544" lon="3.0686">
        <ele>1117</ele>
        <time>2024-03-30T18:33:33Z</time>
      </trkpt>
      <trkpt lat="44.7554" lon="3.06843">
        <ele>1117</ele>
        <time>2024-03-30T18:33:33Z</time>
      </trkpt>
      <trkpt lat="44.75532" lon="3.06825">
        <ele>1116</ele>
        <time>2024-03-30T18:33:33Z</time>
      </trkpt>
      <trkpt lat="44.75535" lon="3.06813">
        <ele>1115</ele>
        <time>2024-03-30T18:33:33Z</time>
      </trkpt>
      <trkpt lat="44.75541" lon="3.06802">
        <ele>1113</ele>
        <time>2024-03-30T18:33:33Z</time>
      </trkpt>
      <trkpt lat="44.75545" lon="3.06769">
        <ele>1112</ele>
        <time>2024-03-30T18:33:33Z</time>
      </trkpt>
      <trkpt lat="44.75537" lon="3.06737">
        <ele>1111</ele>
        <time>2024-03-30T18:33:33Z</time>
      </trkpt>
      <trkpt lat="44.75536" lon="3.06717">
        <ele>1110</ele>
        <time>2024-03-30T18:33:33Z</time>
      </trkpt>
      <trkpt lat="44.75538" lon="3.06705">
        <ele>1109</ele>
        <time>2024-03-30T18:33:33Z</time>
      </trkpt>
      <trkpt lat="44.75538" lon="3.06673">
        <ele>1107</ele>
        <time>2024-03-30T18:33:33Z</time>
      </trkpt>
      <trkpt lat="44.75532" lon="3.06625">
        <ele>1104</ele>
        <time>2024-03-30T18:33:33Z</time>
      </trkpt>
      <trkpt lat="44.75495" lon="3.06551">
        <ele>1098</ele>
        <time>2024-03-30T18:33:33Z</time>
      </trkpt>
      <trkpt lat="44.75482" lon="3.06532">
        <ele>1094</ele>
        <time>2024-03-30T18:33:33Z</time>
      </trkpt>
      <trkpt lat="44.75457" lon="3.06479">
        <ele>1088</ele>
        <time>2024-03-30T18:33:33Z</time>
      </trkpt>
      <trkpt lat="44.75414" lon="3.06429">
        <ele>1084</ele>
        <time>2024-03-30T18:33:33Z</time>
      </trkpt>
      <trkpt lat="44.75392" lon="3.06395">
        <ele>1083</ele>
        <time>2024-03-30T18:33:33Z</time>
      </trkpt>
      <trkpt lat="44.75386" lon="3.06372">
        <ele>1076</ele>
        <time>2024-03-30T18:33:33Z</time>
      </trkpt>
      <trkpt lat="44.75367" lon="3.06318">
        <ele>1075</ele>
        <time>2024-03-30T18:33:33Z</time>
      </trkpt>
      <trkpt lat="44.75357" lon="3.06305">
        <ele>1075</ele>
        <time>2024-03-30T18:33:33Z</time>
      </trkpt>
      <trkpt lat="44.75347" lon="3.06287">
        <ele>1075</ele>
        <time>2024-03-30T18:33:33Z</time>
      </trkpt>
      <trkpt lat="44.75341" lon="3.06267">
        <ele>1075</ele>
        <time>2024-03-30T18:33:33Z</time>
      </trkpt>
      <trkpt lat="44.75344" lon="3.06253">
        <ele>1074</ele>
        <time>2024-03-30T18:33:33Z</time>
      </trkpt>
      <trkpt lat="44.75349" lon="3.06243">
        <ele>1074</ele>
        <time>2024-03-30T18:33:33Z</time>
      </trkpt>
      <trkpt lat="44.75457" lon="3.06147">
        <ele>1071</ele>
        <time>2024-03-30T18:33:33Z</time>
      </trkpt>
      <trkpt lat="44.75484" lon="3.06107">
        <ele>1072</ele>
        <time>2024-03-30T18:33:33Z</time>
      </trkpt>
      <trkpt lat="44.75517" lon="3.0602">
        <ele>1073</ele>
        <time>2024-03-30T18:33:33Z</time>
      </trkpt>
      <trkpt lat="44.75518" lon="3.06009">
        <ele>1073</ele>
        <time>2024-03-30T18:33:33Z</time>
      </trkpt>
      <trkpt lat="44.75516" lon="3.05993">
        <ele>1072</ele>
        <time>2024-03-30T18:33:33Z</time>
      </trkpt>
      <trkpt lat="44.75477" lon="3.05862">
        <ele>1071</ele>
        <time>2024-03-30T18:33:33Z</time>
      </trkpt>
      <trkpt lat="44.75478" lon="3.05862">
        <ele>1069</ele>
        <time>2024-03-30T18:33:33Z</time>
      </trkpt>
      <trkpt lat="44.75584" lon="3.05971">
        <ele>1063</ele>
        <time>2024-03-30T18:33:33Z</time>
      </trkpt>
      <trkpt lat="44.75594" lon="3.05976">
        <ele>1062</ele>
        <time>2024-03-30T18:33:33Z</time>
      </trkpt>
      <trkpt lat="44.75596" lon="3.05991">
        <ele>1061</ele>
        <time>2024-03-30T18:33:33Z</time>
      </trkpt>
      <trkpt lat="44.756" lon="3.06003">
        <ele>1060</ele>
        <time>2024-03-30T18:33:33Z</time>
      </trkpt>
      <trkpt lat="44.75606" lon="3.06013">
        <ele>1059</ele>
        <time>2024-03-30T18:33:33Z</time>
      </trkpt>
      <trkpt lat="44.75618" lon="3.06021">
        <ele>1057</ele>
        <time>2024-03-30T18:33:33Z</time>
      </trkpt>
      <trkpt lat="44.75695" lon="3.06029">
        <ele>1053</ele>
        <time>2024-03-30T18:33:33Z</time>
      </trkpt>
      <trkpt lat="44.75751" lon="3.06005">
        <ele>1051</ele>
        <time>2024-03-30T18:33:33Z</time>
      </trkpt>
      <trkpt lat="44.75771" lon="3.06002">
        <ele>1052</ele>
        <time>2024-03-30T18:33:33Z</time>
      </trkpt>
      <trkpt lat="44.75778" lon="3.06005">
        <ele>1053</ele>
        <time>2024-03-30T18:33:33Z</time>
      </trkpt>
      <trkpt lat="44.75824" lon="3.06069">
        <ele>1055</ele>
        <time>2024-03-30T18:33:33Z</time>
      </trkpt>
      <trkpt lat="44.75835" lon="3.06076">
        <ele>1057</ele>
        <time>2024-03-30T18:33:33Z</time>
      </trkpt>
      <trkpt lat="44.75854" lon="3.06078">
        <ele>1059</ele>
        <time>2024-03-30T18:33:33Z</time>
      </trkpt>
      <trkpt lat="44.75982" lon="3.06106">
        <ele>1062</ele>
        <time>2024-03-30T18:33:33Z</time>
      </trkpt>
      <trkpt lat="44.76006" lon="3.06107">
        <ele>1062</ele>
        <time>2024-03-30T18:33:33Z</time>
      </trkpt>
      <trkpt lat="44.76022" lon="3.06098">
        <ele>1061</ele>
        <time>2024-03-30T18:33:33Z</time>
      </trkpt>
      <trkpt lat="44.76014" lon="3.06043">
        <ele>1060</ele>
        <time>2024-03-30T18:33:33Z</time>
      </trkpt>
      <trkpt lat="44.76014" lon="3.06042">
        <ele>1060</ele>
        <time>2024-03-30T18:33:33Z</time>
      </trkpt>
      <trkpt lat="44.76015" lon="3.06021">
        <ele>1060</ele>
        <time>2024-03-30T18:33:33Z</time>
      </trkpt>
      <trkpt lat="44.76054" lon="3.0594">
        <ele>1059</ele>
        <time>2024-03-30T18:33:33Z</time>
      </trkpt>
      <trkpt lat="44.76106" lon="3.05859">
        <ele>1058</ele>
        <time>2024-03-30T18:33:33Z</time>
      </trkpt>
      <trkpt lat="44.7613" lon="3.05832">
        <ele>1055</ele>
        <time>2024-03-30T18:33:33Z</time>
      </trkpt>
      <trkpt lat="44.76164" lon="3.05833">
        <ele>1053</ele>
        <time>2024-03-30T18:33:33Z</time>
      </trkpt>
      <trkpt lat="44.76194" lon="3.05844">
        <ele>1049</ele>
        <time>2024-03-30T18:33:33Z</time>
      </trkpt>
      <trkpt lat="44.76298" lon="3.05854">
        <ele>1043</ele>
        <time>2024-03-30T18:33:33Z</time>
      </trkpt>
      <trkpt lat="44.76317" lon="3.05851">
        <ele>1041</ele>
        <time>2024-03-30T18:33:33Z</time>
      </trkpt>
      <trkpt lat="44.76325" lon="3.05842">
        <ele>1038</ele>
        <time>2024-03-30T18:33:33Z</time>
      </trkpt>
      <trkpt lat="44.76349" lon="3.05822">
        <ele>1036</ele>
        <time>2024-03-30T18:33:33Z</time>
      </trkpt>
      <trkpt lat="44.76392" lon="3.05812">
        <ele>1034</ele>
        <time>2024-03-30T18:33:33Z</time>
      </trkpt>
      <trkpt lat="44.76403" lon="3.05796">
        <ele>1033</ele>
        <time>2024-03-30T18:33:33Z</time>
      </trkpt>
      <trkpt lat="44.76406" lon="3.05785">
        <ele>1032</ele>
        <time>2024-03-30T18:33:33Z</time>
      </trkpt>
      <trkpt lat="44.76389" lon="3.05726">
        <ele>1032</ele>
        <time>2024-03-30T18:33:33Z</time>
      </trkpt>
      <trkpt lat="44.76389" lon="3.05712">
        <ele>1031</ele>
        <time>2024-03-30T18:33:33Z</time>
      </trkpt>
      <trkpt lat="44.76396" lon="3.05668">
        <ele>1031</ele>
        <time>2024-03-30T18:33:33Z</time>
      </trkpt>
      <trkpt lat="44.76393" lon="3.05616">
        <ele>1031</ele>
        <time>2024-03-30T18:33:33Z</time>
      </trkpt>
      <trkpt lat="44.76396" lon="3.05603">
        <ele>1032</ele>
        <time>2024-03-30T18:33:33Z</time>
      </trkpt>
      <trkpt lat="44.76421" lon="3.05565">
        <ele>1027</ele>
        <time>2024-03-30T18:33:33Z</time>
      </trkpt>
      <trkpt lat="44.76469" lon="3.0552">
        <ele>1027</ele>
        <time>2024-03-30T18:33:33Z</time>
      </trkpt>
      <trkpt lat="44.76497" lon="3.05529">
        <ele>1029</ele>
        <time>2024-03-30T18:33:33Z</time>
      </trkpt>
      <trkpt lat="44.76508" lon="3.05531">
        <ele>1031</ele>
        <time>2024-03-30T18:33:33Z</time>
      </trkpt>
      <trkpt lat="44.76522" lon="3.05517">
        <ele>1033</ele>
        <time>2024-03-30T18:33:33Z</time>
      </trkpt>
      <trkpt lat="44.76587" lon="3.05485">
        <ele>1036</ele>
        <time>2024-03-30T18:33:33Z</time>
      </trkpt>
      <trkpt lat="44.76601" lon="3.05483">
        <ele>1036</ele>
        <time>2024-03-30T18:33:33Z</time>
      </trkpt>
      <trkpt lat="44.76611" lon="3.05486">
        <ele>1035</ele>
        <time>2024-03-30T18:33:33Z</time>
      </trkpt>
      <trkpt lat="44.76643" lon="3.05428">
        <ele>1033</ele>
        <time>2024-03-30T18:33:33Z</time>
      </trkpt>
      <trkpt lat="44.76644" lon="3.05417">
        <ele>1033</ele>
        <time>2024-03-30T18:33:33Z</time>
      </trkpt>
      <trkpt lat="44.76624" lon="3.05335">
        <ele>1032</ele>
        <time>2024-03-30T18:33:33Z</time>
      </trkpt>
      <trkpt lat="44.76619" lon="3.05302">
        <ele>1031</ele>
        <time>2024-03-30T18:33:33Z</time>
      </trkpt>
      <trkpt lat="44.76624" lon="3.0524">
        <ele>1030</ele>
        <time>2024-03-30T18:33:33Z</time>
      </trkpt>
      <trkpt lat="44.76617" lon="3.05234">
        <ele>1029</ele>
        <time>2024-03-30T18:33:33Z</time>
      </trkpt>
      <trkpt lat="44.7656" lon="3.05149">
        <ele>1028</ele>
        <time>2024-03-30T18:33:33Z</time>
      </trkpt>
      <trkpt lat="44.76623" lon="3.05106">
        <ele>1028</ele>
        <time>2024-03-30T18:33:33Z</time>
      </trkpt>
      <trkpt lat="44.76624" lon="3.05107">
        <ele>1027</ele>
        <time>2024-03-30T18:33:33Z</time>
      </trkpt>
      <trkpt lat="44.76639" lon="3.051">
        <ele>1027</ele>
        <time>2024-03-30T18:33:33Z</time>
      </trkpt>
      <trkpt lat="44.76648" lon="3.05094">
        <ele>1026</ele>
        <time>2024-03-30T18:33:33Z</time>
      </trkpt>
      <trkpt lat="44.76665" lon="3.05067">
        <ele>1025</ele>
        <time>2024-03-30T18:33:33Z</time>
      </trkpt>
      <trkpt lat="44.76701" lon="3.05034">
        <ele>1024</ele>
        <time>2024-03-30T18:33:33Z</time>
      </trkpt>
      <trkpt lat="44.7676" lon="3.05005">
        <ele>1022</ele>
        <time>2024-03-30T18:33:33Z</time>
      </trkpt>
      <trkpt lat="44.76774" lon="3.04993">
        <ele>1021</ele>
        <time>2024-03-30T18:33:33Z</time>
      </trkpt>
      <trkpt lat="44.76803" lon="3.04949">
        <ele>1018</ele>
        <time>2024-03-30T18:33:33Z</time>
      </trkpt>
      <trkpt lat="44.76869" lon="3.048">
        <ele>1012</ele>
        <time>2024-03-30T18:33:33Z</time>
      </trkpt>
      <trkpt lat="44.7694" lon="3.04682">
        <ele>1008</ele>
        <time>2024-03-30T18:33:33Z</time>
      </trkpt>
      <trkpt lat="44.76942" lon="3.04648">
        <ele>1008</ele>
        <time>2024-03-30T18:33:33Z</time>
      </trkpt>
      <trkpt lat="44.76953" lon="3.04652">
        <ele>1008</ele>
        <time>2024-03-30T18:33:33Z</time>
      </trkpt>
      <trkpt lat="44.76953" lon="3.04652">
        <ele>1009</ele>
        <time>2024-03-30T18:33:33Z</time>
      </trkpt>
      <trkpt lat="44.77297" lon="3.04514">
        <ele>1013.7</ele>
        <time>2024-03-30T18:33:33Z</time>
      </trkpt>
    </trkseg>
  </trk>
</gpx>